Elmendorf AFB, AK

9:28 AM AKDT on May 23, 2017 (GMT -0800)
Elmendorf Air Force Base

Weather History for PAED - July, 2013

Change the Weather History Date:

Wednesday, July 10, 2013

  Actual Average Record
Temperature  
Mean Temperature 62 °F -  
Max Temperature 71 °F 65 °F 82 °F (1951)
Min Temperature 54 °F 52 °F 46 °F (1970)
Degree Days  
Heating Degree Days 3    
Growing Degree Days 12 (Base 50)    
Moisture  
Dew Point 48 °F    
Average Humidity 63    
Maximum Humidity 90    
Minimum Humidity 43    
Precipitation  
Precipitation 0.00 in - - ()
Sea Level Pressure  
Sea Level Pressure 30.00 in    
Wind  
Wind Speed 4 mph (WSW)    
Max Wind Speed 13 mph    
Max Gust Speed -    
Visibility 10 miles    
Events Rain    
Averages and records for this station are not official NWS values.
T = Trace of Precipitation, MM = Missing Value Source: NWS Daily Summary

Daily Weather History Graph

Daily Weather History Graph

Search for Another Location

Airport or City:

Trip Planner

Search our weather history database for the weather conditions in past years. The results will help you decide how hot, cold, wet, or windy it might be!

Date:

Astronomy

Jul. 10, 2013 Rise Set
Actual Time 4:41 AM AKDT 11:26 PM AKDT
Civil Twilight 2:53 AM AKDT 1:11 AM AKDT
Nautical Twilight Sun does not set Sun does not set
Astronomical Twilight Sun does not set Sun does not set
Moon 8:20 AM AKDT (7/10) 11:22 PM AKDT (7/10)
Length of Visible Light 22h 18m
Length of Day
18h 45m
Waxing Crescent, 6% of the Moon is Illuminated
Jul 10
Waxing Crescent
Jul 15
First Quarter
Jul 22
Full
Jul 29
Last Quarter
Aug 6
New

Hourly Weather History & Observations

Time (AKDT) Temp. Dew Point Humidity Pressure Visibility Wind Dir Wind Speed Gust Speed Precip Events Conditions
12:55 AM 57.6 °F 47.7 °F 70% 30.05 in 10.0 mi ESE 4.6 mph - N/A   Overcast
1:55 AM 57.0 °F 48.6 °F 73% 30.05 in 10.0 mi Calm Calm - N/A   Overcast
2:55 AM 56.3 °F 49.3 °F 77% 30.06 in 10.0 mi Calm Calm - N/A   Scattered Clouds
2:59 AM 57.2 °F 48.2 °F 72% 30.06 in 10.0 mi Calm Calm - N/A   Light Drizzle
3:18 AM 57.2 °F 50.0 °F 77% 30.05 in 8.0 mi SE 4.6 mph - N/A Rain Light Rain
3:24 AM 57.2 °F 50.0 °F 77% 30.05 in 8.0 mi SE 6.9 mph - N/A   Mostly Cloudy
3:47 AM 57.2 °F 50.0 °F 77% 30.05 in 10.0 mi SSE 4.6 mph - N/A   Light Drizzle
3:55 AM 56.5 °F 50.5 °F 80% 30.05 in 9.0 mi SSE 4.6 mph - 0.00 in Rain Light Rain
4:00 AM 55.4 °F 51.8 °F 88% 30.06 in 9.0 mi Calm Calm - N/A Rain Light Rain
4:08 AM 55.4 °F 51.8 °F 88% 30.06 in 8.0 mi East 4.6 mph - N/A Rain Light Rain
4:49 AM 55.4 °F 51.8 °F 88% 30.06 in 10.0 mi East 4.6 mph - N/A   Scattered Clouds
4:55 AM 54.3 °F 51.4 °F 90% 30.06 in 10.0 mi East 5.8 mph - 0.00 in   Scattered Clouds
5:55 AM 54.3 °F 50.7 °F 88% 30.05 in 10.0 mi Calm Calm - N/A   Mostly Cloudy
6:55 AM 55.6 °F 51.4 °F 86% 30.05 in 10.0 mi Calm Calm - N/A   Overcast
7:55 AM 56.5 °F 51.4 °F 83% 30.04 in 10.0 mi SW 3.5 mph - N/A   Scattered Clouds
8:55 AM 57.6 °F 47.8 °F 70% 30.04 in 10.0 mi SSE 4.6 mph - N/A   Scattered Clouds
9:55 AM 61.0 °F 49.8 °F 67% 30.04 in 10.0 mi South 9.2 mph - N/A   Partly Cloudy
10:55 AM 62.4 °F 48.7 °F 61% 30.04 in 10.0 mi SW 6.9 mph - N/A   Scattered Clouds
11:01 AM 62.6 °F 48.2 °F 59% 30.04 in 10.0 mi Variable 5.8 mph - N/A Rain Light Rain
11:12 AM 62.6 °F 48.2 °F 59% 30.03 in 10.0 mi WSW 6.9 mph - N/A   Partly Cloudy
11:55 AM 63.5 °F 49.3 °F 60% 30.03 in 10.0 mi WSW 9.2 mph - 0.00 in   Clear
12:55 PM 65.5 °F 48.7 °F 55% 30.02 in 10.0 mi WSW 5.8 mph - N/A   Partly Cloudy
1:55 PM 65.7 °F 47.7 °F 52% 30.01 in 10.0 mi WSW 8.1 mph - N/A   Clear
2:25 PM 68.0 °F 48.2 °F 49% 30.01 in 10.0 mi NNW 8.1 mph - N/A   Light Drizzle
2:55 PM 69.8 °F 49.1 °F 48% 30.00 in 10.0 mi North 6.9 mph - 0.00 in Rain Light Rain
3:09 PM 69.8 °F 48.2 °F 46% 29.99 in 10.0 mi Variable 4.6 mph - N/A   Partly Cloudy
3:55 PM 70.0 °F 49.8 °F 49% 29.99 in 10.0 mi North 6.9 mph - 0.00 in   Mostly Cloudy
4:55 PM 70.3 °F 46.9 °F 43% 29.97 in 10.0 mi WNW 8.1 mph - N/A   Clear
5:55 PM 70.3 °F 49.8 °F 48% 29.96 in 10.0 mi WSW 9.2 mph - N/A   Scattered Clouds
6:55 PM 68.4 °F 48.7 °F 49% 29.96 in 10.0 mi West 12.7 mph - N/A   Scattered Clouds
7:55 PM 68.0 °F 46.8 °F 47% 29.95 in 10.0 mi West 9.2 mph - N/A   Mostly Cloudy
8:15 PM 66.2 °F 46.4 °F 49% 29.95 in 10.0 mi West 6.9 mph - N/A   Light Drizzle
8:23 PM 66.2 °F 44.6 °F 46% 29.94 in 10.0 mi West 5.8 mph - N/A   Scattered Clouds
8:32 PM 66.2 °F 46.4 °F 49% 29.94 in 10.0 mi WSW 6.9 mph - N/A   Light Drizzle
8:46 PM 66.2 °F 46.4 °F 49% 29.95 in 10.0 mi West 5.8 mph - N/A   Clear
8:55 PM 66.4 °F 46.2 °F 48% 29.95 in 10.0 mi West 6.9 mph - 0.00 in   Clear
9:09 PM 66.2 °F 46.4 °F 49% 29.94 in 10.0 mi West 5.8 mph - N/A Rain Light Rain
9:19 PM 64.4 °F 46.4 °F 52% 29.94 in 10.0 mi West 6.9 mph - N/A   Partly Cloudy
9:21 PM 64.4 °F 46.4 °F 52% 29.94 in 10.0 mi West 6.9 mph - N/A Rain Light Rain
9:33 PM 64.4 °F 46.4 °F 52% 29.94 in 10.0 mi West 4.6 mph - N/A   Clear
9:55 PM 64.0 °F 45.5 °F 51% 29.94 in 10.0 mi Calm Calm - 0.00 in   Clear
10:55 PM 59.9 °F 44.4 °F 57% 29.95 in 10.0 mi Calm Calm - N/A   Partly Cloudy
11:55 PM 60.1 °F 46.2 °F 60% 29.95 in 10.0 mi Calm Calm - N/A   Overcast